Location: �quirre
(50.4736°N, 2.2351°E)
Time: 05:39:06
(UTC+00:00)

Cosmos 1733 - Pass Details

Date: 07 August 2020
Orbit: 505 x 522 km, 82.5° (Epoch: 19 September)

Event Time Altitude Azimuth Distance (km) Brightness Sun altitude
Exits shadow 01:42:36 29° 142° (SE) 955 4.3 -19.3°
Maximum altitude 01:43:58 42° 94° (E) 750 4.1 -19.2°
Drops below altitude 10° 01:47:37 10° 23° (NNE) 1,759 7.1 -18.9°
Sets 01:49:50 0° 16° (NNE) 2,655 8.3 -18.7°
